Location: Haliburton Scout Reserve
(45.0900°N, 78.3200°W)
Time: 06:40:11
(UTC-04:00)

HuskySat-1 - Visible Passes

Search period start: 22 May 2022 00:00
Search period end: 01 June 2022 00:00
Orbit: 421 x 433 km, 51.6° (Epoch: 21 May)

Date Brightness Start Highest point End Pass type
(mag) Time Alt. Az. Time Alt. Az. Time Alt. Az.
22 May ? 01:57:24 39° NNW 01:57:24 39° NNW 02:00:36 10° NE visible
22 May ? 03:32:00 10° WNW 03:34:55 26° N 03:37:50 10° ENE visible
23 May ? 01:13:21 33° NE 01:13:21 33° NE 01:15:29 10° NE visible
23 May ? 02:46:43 10° WNW 02:49:38 26° N 02:52:33 10° ENE visible
23 May ? 04:24:00 10° NW 04:27:11 37° NNE 04:30:23 10° E visible
24 May ? 00:28:59 21° NE 00:28:59 21° NE 00:30:17 10° ENE visible
24 May ? 02:02:01 14° WNW 02:04:15 27° N 02:07:14 10° NE visible
24 May ? 03:38:46 10° NW 03:41:51 31° NNE 03:44:55 10° ENE visible
24 May ? 23:44:03 17° ENE 23:44:03 17° ENE 23:44:59 10° ENE visible
25 May ? 01:17:01 19° WNW 01:18:48 31° NNW 01:21:52 10° NE visible
25 May ? 02:53:25 10° NW 02:56:24 28° N 02:59:23 10° ENE visible
25 May ? 04:30:21 10° WNW 04:33:43 74° NNE 04:37:06 10° ESE visible
25 May ? 22:52:56 10° SW 22:56:14 52° SE 22:59:32 10° ENE visible
26 May ? 00:30:08 10° W 00:33:17 36° NNW 00:36:28 10° NE visible
26 May ? 02:07:55 10° NW 02:10:51 26° N 02:13:46 10° ENE visible
26 May ? 03:44:57 10° NW 03:48:17 53° NNE 03:51:36 10° ESE visible
26 May ? 22:07:45 10° SSW 22:10:50 34° SE 22:13:56 10° ENE visible
26 May ? 23:44:27 10° W 23:47:43 46° NNW 23:51:00 10° NE visible
27 May ? 01:22:17 10° WNW 01:25:12 26° N 01:28:06 10° ENE visible
27 May ? 02:59:29 10° NW 03:02:43 40° NNE 03:05:57 10° E visible
27 May ? 04:36:27 10° WNW 04:39:41 42° SW 04:42:54 10° SE visible
27 May ? 21:22:42 10° S 21:25:24 22° SE 21:28:06 10° E visible
27 May ? 22:58:45 10° WSW 23:02:05 62° NNW 23:05:28 10° ENE visible
28 May ? 00:36:32 10° WNW 00:39:28 27° N 00:42:25 10° NE visible
28 May ? 02:13:55 10° NW 02:17:02 33° NNE 02:20:09 10° E visible
28 May ? 03:50:48 10° WNW 03:54:10 66° SSW 03:57:31 10° SE visible
28 May ? 22:13:02 10° WSW 22:16:26 88° NNW 22:19:50 10° ENE visible
28 May ? 23:50:39 10° WNW 23:53:40 29° N 23:56:42 10° NE visible
29 May ? 01:28:14 10° NW 01:31:14 29° N 01:34:15 10° ENE visible
29 May ? 03:05:06 10° WNW 03:08:30 84° NNE 03:11:53 10° ESE visible
29 May ? 04:42:56 10° W 04:45:02 16° SW 04:47:08 10° S visible
29 May ? 21:27:22 10° SW 21:30:42 61° SE 21:34:03 10° ENE visible
29 May ? 23:04:40 10° W 23:07:48 34° NNW 23:10:56 10° NE visible
30 May ? 00:42:24 10° NW 00:45:20 26° N 00:48:17 10° ENE visible
30 May ? 02:19:22 10° NW 02:22:44 59° NNE 02:26:04 10° ESE visible
30 May ? 03:56:39 10° W 03:59:27 24° SW 04:02:13 10° SSE visible
30 May ? 22:18:38 10° W 22:21:52 42° NNW 22:25:07 10° NE visible
30 May ? 23:56:27 10° WNW 23:59:21 26° N 00:02:15 10° ENE visible
31 May ? 01:33:33 10° NW 01:36:49 43° NNE 01:37:46 34° ENE visible
31 May ? 03:10:34 10° WNW 03:10:42 11° WNW 03:10:42 11° WNW visible
31 May ? 21:32:33 10° WSW 21:35:53 56° NNW 21:39:14 10° NE visible
31 May ? 23:10:21 10° WNW 23:13:16 26° N 23:16:12 10° NE visible
